Zurück zum Katalog

FENGYUN 1C DEB

AktivPO
NORAD 31857·DEBRIS·🇨🇳 China

Gestartet May 10, 1999 von Taiyuan Satellite Launch Center

Loading…

Nächste Überflüge (nächste 24 Stunden)

TLE

VeraltetSource: Space-Track

Epoche: Aug 23, 2026, 02:05 UTC

1 31857U 99025CJX 26235.08746538  .00001005  00000-0  95958-3 0  9993
2 31857  96.1879 177.7712 0306791 296.9768  60.0358 13.62820596650792

Verfolge FENGYUN 1C DEB in Echtzeit mit AllMySat

Download on the App Store